KG0HG Weather Reports


time (UTC)temp
F
wind
direction
speed
knots
gust
knots
rain 1hr
in
rain 24hr
in
rain mn
in
humidity
%
barometer
mb
20260507165813 62 181 2.6 8.7 0.00 0.00 0.00 54 1015.7
20260507165310 61 171 5.2 11.3 0.00 0.00 0.00 54 1015.8
20260507164806 61 197 5.2 7.0 0.00 0.00 0.00 55 1016.0
20260507164303 62 186 4.3 7.0 0.00 0.00 0.00 54 1015.9
20260507163800 61 149 7.0 8.7 0.00 0.00 0.00 53 1015.9
20260507163258 61 120 2.6 7.8 0.00 0.00 0.00 54 1016.2
20260507162753 60 160 2.6 8.7 0.00 0.00 0.00 55 1016.0
20260507162249 61 123 2.6 8.7 0.00 0.00 0.00 55 1015.9
20260507161747 60 137 0.9 7.0 0.00 0.00 0.00 55 1016.3
20260507161243 61 163 4.3 9.6 0.00 0.00 0.00 56 1016.0
20260507160739 60 309 4.3 11.3 0.00 0.00 0.00 54 1016.0
20260507160236 60 151 6.1 11.3 0.00 0.00 0.00 54 1016.2
20260507155732 60 146 3.5 7.8 0.00 0.00 0.00 54 1016.4
20260507155228 60 220 5.2 7.8 0.00 0.00 0.00 55 1016.3
20260507154725 60 211 2.6 7.0 0.00 0.00 0.00 57 1016.2
20260507154222 60 183 2.6 7.0 0.00 0.00 0.00 56 1016.2
20260507153718 60 167 4.3 7.0 0.00 0.00 0.00 56 1016.3
20260507153215 60 256 2.6 7.0 0.00 0.00 0.00 57 1016.2
20260507152712 60 129 0.9 6.1 0.00 0.00 0.00 57 1016.5
20260507152207 59 195 2.6 7.8 0.00 0.00 0.00 58 1016.7
20260507151704 59 200 3.5 7.0 0.00 0.00 0.00 58 1016.6
20260507151200 59 138 4.3 5.2 0.00 0.00 0.00 59 1016.5
20260507150657 59 144 3.5 9.6 0.00 0.00 0.00 59 1016.7
20260507150154 59 176 2.6 5.2 0.00 0.00 0.00 61 1016.4
20260507145650 58 277 0.9 7.8 0.00 0.00 0.00 61 1016.7
20260507145147 58 159 3.5 7.0 0.00 0.00 0.00 62 1016.7
20260507144643 58 161 3.5 7.8 0.00 0.00 0.00 63 1016.9
20260507144142 57 229 2.6 7.0 0.00 0.00 0.00 64 1016.8
20260507143638 57 184 2.6 4.3 0.00 0.00 0.00 65 1016.7
20260507143135 57 145 1.7 5.2 0.00 0.00 0.00 66 1016.6
20260507142630 56 149 1.7 6.1 0.00 0.00 0.00 66 1016.8
20260507142128 56 150 2.6 6.1 0.00 0.00 0.00 66 1016.9
20260507141624 55 182 4.3 7.0 0.00 0.00 0.00 66 1016.8
20260507141121 55 274 1.7 6.1 0.00 0.00 0.00 68 1017.0
20260507140617 55 139 1.7 4.3 0.00 0.00 0.00 69 1016.8
20260507140115 54 121 0.9 4.3 0.00 0.00 0.00 69 1016.9
20260507135612 54 215 3.5 5.2 0.00 0.00 0.00 70 1016.9
20260507135109 54 286 0.0 5.2 0.00 0.00 0.00 72 1016.7
20260507134605 53 124 0.9 1.7 0.00 0.00 0.00 74 1016.9
20260507134102 53 142 1.7 2.6 0.00 0.00 0.00 73 1017.0
20260507133557 52 99 0.9 5.2 0.00 0.00 0.00 74 1016.9
20260507133055 52 87 0.9 1.7 0.00 0.00 0.00 75 1016.8
20260507132552 51 117 0.9 2.6 0.00 0.00 0.00 76 1017.1
20260507132048 50 27 0.0 0.0 0.00 0.00 0.00 79 1017.1
20260507131545 50 74 0.0 0.9 0.00 0.00 0.00 79 1017.1
20260507131043 50 74 0.0 0.0 0.00 0.00 0.00 79 1017.2
20260507130539 48 73 0.0 0.0 0.00 0.00 0.00 81 1017.4
20260507130038 48 73 0.0 0.0 0.00 0.00 0.00 81 1017.5
20260507125536 48 73 0.0 0.0 0.00 0.00 0.00 82 1017.4
20260507125033 47 73 0.0 0.0 0.00 0.00 0.00 84 1017.3
20260507124529 46 73 0.0 0.0 0.00 0.00 0.00 86 1017.2
20260507124027 44 73 0.0 0.0 0.00 0.00 0.00 88 1017.4
20260507123525 43 73 0.0 0.0 0.00 0.00 0.00 89 1017.3
20260507123021 43 73 0.0 0.0 0.00 0.00 0.00 89 1017.2
20260507122517 42 73 0.0 0.0 0.00 0.00 0.00 90 1017.3
20260507122013 42 73 0.0 0.0 0.00 0.00 0.00 90 1017.2
20260507121509 41 73 0.0 0.0 0.00 0.00 0.00 90 1017.3
20260507121004 41 73 0.0 0.0 0.00 0.00 0.00 89 1017.5
20260507120501 41 73 0.0 0.0 0.00 0.00 0.00 89 1017.2
20260507115958 41 73 0.0 0.0 0.00 0.00 0.00 88 1017.1
20260507115454 42 73 0.0 0.0 0.00 0.00 0.00 88 1017.3
20260507114950 42 73 0.0 0.0 0.00 0.00 0.00 87 1017.2
20260507114446 43 73 0.0 0.0 0.00 0.00 0.00 86 1017.2
20260507113944 44 73 0.0 0.0 0.00 0.00 0.00 85 1017.3
20260507113440 43 73 0.0 0.0 0.00 0.00 0.00 88 1017.2
20260507112938 41 73 0.0 0.0 0.00 0.00 0.00 91 1017.1
20260507112435 41 73 0.0 0.0 0.00 0.00 0.00 90 1017.1
20260507111932 40 73 0.0 0.0 0.00 0.00 0.00 90 1017.1
20260507111430 40 73 0.0 0.0 0.00 0.00 0.00 89 1017.1
20260507110926 41 73 0.0 0.0 0.00 0.00 0.00 89 1016.9
20260507110422 41 73 0.0 0.0 0.00 0.00 0.00 88 1017.0
20260507105919 42 73 0.0 0.0 0.00 0.00 0.00 86 1017.1
20260507105416 43 73 0.0 0.0 0.00 0.00 0.00 84 1017.1
20260507104912 45 73 0.0 0.0 0.00 0.00 0.00 84 1017.2
20260507104409 42 73 0.0 0.0 0.00 0.00 0.00 84 1017.1
20260507103905 44 73 0.0 0.0 0.00 0.00 0.00 82 1017.1
20260507103402 43 73 0.0 0.0 0.00 0.00 0.00 85 1017.0
20260507102858 45 73 0.0 0.0 0.00 0.00 0.00 79 1017.1
20260507102354 48 73 0.0 0.0 0.00 0.00 0.00 77 1017.0
20260507101851 46 72 0.0 0.0 0.00 0.00 0.00 78 1017.1
20260507101351 47 72 0.0 0.0 0.00 0.00 0.00 79 1017.2
20260507100848 47 72 0.0 0.0 0.00 0.00 0.00 82 1017.1
20260507100346 42 71 0.0 0.0 0.00 0.00 0.00 90 1017.1
20260507095844 43 71 0.0 0.0 0.00 0.00 0.00 86 1017.1
20260507095340 42 70 0.0 0.0 0.00 0.00 0.00 90 1017.0
20260507094838 43 70 0.0 0.0 0.00 0.00 0.00 87 1017.3
20260507094334 45 70 0.0 0.0 0.00 0.00 0.00 88 1017.2
20260507093831 44 69 0.0 0.0 0.00 0.00 0.00 92 1017.2
20260507093329 44 68 0.0 0.0 0.00 0.00 0.00 95 1017.3
20260507092827 41 68 0.0 0.0 0.00 0.00 0.00 95 1017.5
20260507092323 40 68 0.0 0.0 0.00 0.00 0.00 94 1017.4
20260507091820 40 68 0.0 0.0 0.00 0.00 0.00 94 1017.4
20260507091316 41 68 0.0 0.0 0.00 0.00 0.00 94 1017.3
20260507090811 41 68 0.0 0.0 0.00 0.00 0.00 94 1017.4
20260507090308 41 68 0.0 0.0 0.00 0.00 0.00 94 1017.2
20260507085805 41 68 0.0 0.0 0.00 0.00 0.00 94 1017.4
20260507085306 41 68 0.0 0.0 0.00 0.00 0.00 94 1017.4
20260507084800 41 68 0.0 0.0 0.00 0.00 0.00 94 1017.4
20260507084255 41 68 0.0 0.0 0.00 0.00 0.00 94 1017.3
20260507083753 41 68 0.0 0.0 0.00 0.00 0.00 93 1017.4
20260507083250 41 68 0.0 0.0 0.00 0.00 0.00 93 1017.4
20260507082746 41 68 0.0 0.0 0.00 0.00 0.00 93 1017.6
20260507082242 41 68 0.0 0.0 0.00 0.00 0.00 93 1017.5
20260507081739 41 68 0.0 0.0 0.00 0.00 0.00 93 1017.5
20260507081235 41 68 0.0 0.0 0.00 0.00 0.00 92 1017.5
20260507080731 42 68 0.0 0.0 0.00 0.00 0.00 92 1017.4
20260507080228 42 68 0.0 0.0 0.00 0.00 0.00 92 1017.5
20260507075723 42 68 0.0 0.0 0.00 0.00 0.00 92 1017.1
20260507075220 42 68 0.0 0.0 0.00 0.00 0.00 92 1017.1
20260507074716 42 68 0.0 0.0 0.00 0.00 0.00 92 1017.3
20260507074214 42 68 0.0 0.0 0.00 0.00 0.00 92 1017.2
20260507073711 42 68 0.0 0.0 0.00 0.00 0.00 91 1017.4
20260507073207 42 68 0.0 0.0 0.00 0.00 0.00 91 1017.6
20260507072705 43 68 0.0 0.0 0.00 0.00 0.00 91 1017.5
20260507072202 43 68 0.0 0.0 0.00 0.00 0.00 90 1017.8
20260507071700 43 68 0.0 0.0 0.00 0.00 0.00 90 1017.7
20260507071155 43 68 0.0 0.0 0.00 0.00 0.00 90 1017.8
20260507070653 43 68 0.0 0.0 0.00 0.00 0.00 89 1017.9
20260507070149 43 68 0.0 0.0 0.00 0.00 0.00 89 1017.7
20260507065646 43 68 0.0 0.0 0.00 0.00 0.00 89 1017.7
20260507065143 43 68 0.0 0.0 0.00 0.00 0.00 89 1018.0
20260507064640 43 68 0.0 0.0 0.00 0.00 0.00 89 1017.9
20260507064139 43 68 0.0 0.0 0.00 0.00 0.00 89 1018.0
20260507063636 43 68 0.0 0.0 0.00 0.00 0.00 89 1018.0
20260507063133 43 68 0.0 0.0 0.00 0.00 0.00 90 1018.1
20260507062629 43 68 0.0 0.0 0.00 0.00 0.00 90 1018.1
20260507062128 43 68 0.0 0.0 0.00 0.00 0.00 91 1018.1
20260507061625 43 68 0.0 0.0 0.00 0.00 0.00 91 1018.2
20260507061123 43 68 0.0 0.0 0.00 0.00 0.00 92 1018.1
20260507060621 43 68 0.0 0.0 0.00 0.00 0.00 92 1018.1
20260507060117 43 68 0.0 0.0 0.00 0.00 0.00 92 1018.1
20260507055612 43 68 0.0 0.0 0.00 0.00 0.00 92 1018.2
20260507055109 43 68 0.0 0.0 0.00 0.00 0.00 92 1018.3
20260507054604 43 68 0.0 0.0 0.00 0.00 0.00 93 1018.2
20260507054102 43 68 0.0 0.0 0.00 0.00 0.00 93 1018.1
20260507053600 43 68 0.0 0.0 0.00 0.00 0.00 93 1018.0
20260507053058 42 68 0.0 0.0 0.00 0.00 0.00 93 1018.1
20260507052556 42 68 0.0 0.0 0.00 0.00 0.00 93 1018.1
20260507052052 42 68 0.0 0.0 0.00 0.00 0.00 93 1018.0
20260507051549 42 68 0.0 0.0 0.00 0.00 0.00 92 1018.1
20260507051046 42 68 0.0 0.0 0.00 0.00 0.00 92 1018.2
20260507050543 42 68 0.0 0.0 0.00 0.00 0.00 92 1018.2
20260507050039 42 68 0.0 0.0 0.00 0.00 0.00 92 1018.1
20260507045536 42 68 0.0 0.0 0.00 0.00 0.00 92 1018.3
20260507045033 42 68 0.0 0.0 0.00 0.00 0.00 91 1018.3
20260507044530 42 68 0.0 0.0 0.00 0.00 0.00 91 1018.3
20260507044027 43 68 0.0 0.0 0.00 0.00 0.00 91 1018.2
20260507043522 43 68 0.0 0.0 0.00 0.00 0.00 91 1018.2
20260507043020 43 68 0.0 0.0 0.00 0.00 0.00 91 1018.2
20260507042516 43 68 0.0 0.0 0.00 0.00 0.00 90 1018.0
20260507042011 44 68 0.0 0.0 0.00 0.00 0.00 90 1018.2
20260507041509 43 68 0.0 0.0 0.00 0.00 0.00 90 1018.2
20260507041006 44 68 0.0 0.0 0.00 0.00 0.00 90 1018.3
20260507040502 43 67 0.0 0.0 0.00 0.00 0.00 90 1018.2
20260507035957 43 67 0.0 0.0 0.00 0.00 0.00 89 1018.3
20260507035454 43 67 0.0 0.0 0.00 0.00 0.00 88 1018.4
20260507034951 43 67 0.0 0.0 0.00 0.00 0.00 88 1018.2
20260507034448 44 67 0.0 0.0 0.00 0.00 0.00 88 1018.3
20260507033946 44 67 0.0 0.0 0.00 0.00 0.00 87 1018.1
20260507033443 44 67 0.0 0.0 0.00 0.00 0.00 86 1018.3
20260507032940 44 67 0.0 0.0 0.00 0.00 0.00 85 1018.3
20260507032437 45 67 0.0 0.0 0.00 0.00 0.00 84 1018.2
20260507031933 45 66 0.0 0.0 0.00 0.00 0.00 83 1018.4
20260507031430 45 66 0.0 0.0 0.00 0.00 0.00 82 1018.2
20260507030927 45 66 0.0 0.0 0.00 0.00 0.00 81 1018.3
20260507030424 46 66 0.0 0.0 0.00 0.00 0.00 79 1018.1
20260507025921 46 66 0.0 0.0 0.00 0.00 0.00 78 1018.2
20260507025418 46 66 0.0 0.0 0.00 0.00 0.00 77 1018.3
20260507024916 47 66 0.0 0.0 0.00 0.00 0.00 77 1018.1
20260507024413 47 66 0.0 0.0 0.00 0.00 0.00 75 1018.1
20260507023909 47 66 0.0 0.0 0.00 0.00 0.00 74 1018.0
20260507023406 47 66 0.0 0.0 0.00 0.00 0.00 72 1018.0
20260507022903 48 66 0.0 0.0 0.00 0.00 0.00 71 1018.0
20260507022400 48 65 0.0 0.0 0.00 0.00 0.00 69 1018.1
20260507021856 48 65 0.0 0.0 0.00 0.00 0.00 67 1018.0
20260507021351 49 65 0.0 0.0 0.00 0.00 0.00 64 1018.0
20260507020849 50 65 0.0 0.0 0.00 0.00 0.00 60 1017.8
20260507020345 50 65 0.0 0.0 0.00 0.00 0.00 59 1017.7
20260507015842 50 65 0.0 0.0 0.00 0.00 0.00 59 1017.7
20260507015341 51 64 0.0 0.0 0.00 0.00 0.00 54 1017.9
20260507014837 52 63 0.0 0.0 0.00 0.00 0.00 54 1017.8
20260507014334 52 62 0.0 0.0 0.00 0.00 0.00 50 1017.5
20260507013830 52 61 0.0 0.0 0.00 0.00 0.00 48 1017.6
20260507013327 53 50 0.0 0.0 0.00 0.00 0.00 47 1017.4
20260507012824 53 50 0.0 0.0 0.00 0.00 0.00 46 1017.4
20260507012320 54 49 0.0 0.0 0.00 0.00 0.00 46 1017.5
20260507011812 54 49 0.0 0.0 0.00 0.00 0.00 45 1017.3
20260507011309 55 50 0.0 0.0 0.00 0.00 0.00 42 1017.5
20260507010808 56 50 0.0 0.0 0.00 0.00 0.00 41 1017.4
20260507010304 57 50 0.0 0.0 0.00 0.00 0.00 38 1017.4
20260507005802 57 57 0.0 0.0 0.00 0.00 0.00 41 1017.3
20260507005258 58 36 0.0 0.9 0.00 0.00 0.00 37 1017.4
20260507004755 58 39 0.0 0.9 0.00 0.00 0.00 38 1017.3
20260507004253 59 301 4.3 6.1 0.00 0.00 0.00 34 1017.1
20260507003749 59 37 0.9 2.6 0.00 0.00 0.00 35 1017.1
20260507003244 61 36 0.9 1.7 0.00 0.00 0.00 33 1017.2
20260507002740 60 47 0.9 1.7 0.00 0.00 0.00 34 1017.1
20260507002236 60 347 1.7 4.3 0.00 0.00 0.00 33 1017.2
20260507001733 60 10 2.6 2.6 0.00 0.00 0.00 34 1016.9
20260507001231 60 346 2.6 2.6 0.00 0.00 0.00 33 1017.2
20260507000727 61 310 3.5 4.3 0.00 0.00 0.00 33 1017.3
20260507000222 60 306 1.7 4.3 0.00 0.00 0.00 33 1017.3
20260506235720 60 30 0.9 2.6 0.00 0.00 0.00 35 1017.3
20260506235215 60 25 1.7 2.6 0.00 0.00 0.00 33 1017.3
20260506234712 60 55 0.0 1.7 0.00 0.00 0.00 35 1017.2
20260506234210 60 8 0.9 4.3 0.00 0.00 0.00 34 1017.2
20260506233707 60 25 2.6 7.8 0.00 0.00 0.00 32 1017.3
20260506233203 61 292 7.0 8.7 0.00 0.00 0.00 32 1017.1
20260506232700 61 12 1.7 5.2 0.00 0.00 0.00 32 1017.0
20260506232155 61 350 1.7 2.6 0.00 0.00 0.00 33 1017.1
20260506231652 60 39 0.0 5.2 0.00 0.00 0.00 32 1017.2
20260506231151 61 59 0.9 1.7 0.00 0.00 0.00 35 1017.1
20260506230647 61 45 2.6 2.6 0.00 0.00 0.00 34 1017.0
20260506230144 61 22 1.7 4.3 0.00 0.00 0.00 34 1017.3
20260506225640 61 104 0.9 5.2 0.00 0.00 0.00 33 1017.1
20260506225138 60 28 0.9 7.0 0.00 0.00 0.00 34 1017.0
20260506224634 61 65 0.0 1.7 0.00 0.00 0.00 36 1017.1
20260506224130 60 297 1.7 6.1 0.00 0.00 0.00 34 1017.2
20260506223627 60 293 5.2 7.8 0.00 0.00 0.00 33 1017.2
20260506223123 60 34 0.9 2.6 0.00 0.00 0.00 34 1017.4
20260506222620 61 93 0.9 1.7 0.00 0.00 0.00 35 1017.3
20260506222116 61 295 2.6 4.3 0.00 0.00 0.00 34 1017.4
20260506221614 61 46 0.0 5.2 0.00 0.00 0.00 33 1017.3
20260506221112 61 46 0.9 2.6 0.00 0.00 0.00 32 1017.1
20260506220608 60 267 2.6 7.0 0.00 0.00 0.00 33 1017.4
20260506220103 60 47 0.0 1.7 0.00 0.00 0.00 34 1017.4
20260506215600 59 347 2.6 6.1 0.00 0.00 0.00 34 1017.4
20260506215056 59 210 3.5 4.3 0.00 0.00 0.00 36 1017.3
20260506214553 60 309 3.5 6.1 0.00 0.00 0.00 34 1017.6
20260506214050 60 313 6.1 11.3 0.00 0.00 0.00 34 1017.5
20260506213548 58 1 3.5 5.2 0.00 0.00 0.00 33 1017.4
20260506213045 58 356 2.6 6.1 0.00 0.00 0.00 34 1017.4
20260506212542 60 325 4.3 7.8 0.00 0.00 0.00 34 1017.5
20260506212037 59 311 3.5 8.7 0.00 0.00 0.00 33 1017.5
20260506211533 60 359 1.7 7.0 0.00 0.00 0.00 34 1017.7
20260506211030 60 350 4.3 8.7 0.00 0.00 0.00 33 1017.7
20260506210527 60 56 0.9 2.6 0.00 0.00 0.00 34 1017.8
20260506210024 60 45 0.9 1.7 0.00 0.00 0.00 35 1018.0
20260506205520 60 10 2.6 8.7 0.00 0.00 0.00 34 1018.1
20260506205016 59 307 3.5 8.7 0.00 0.00 0.00 34 1018.1
20260506204514 60 52 0.9 2.6 0.00 0.00 0.00 34 1018.2
20260506204010 60 27 1.7 2.6 0.00 0.00 0.00 34 1018.3
20260506203509 60 23 1.7 2.6 0.00 0.00 0.00 34 1018.3
20260506203004 60 357 4.3 6.1 0.00 0.00 0.00 33 1018.5
20260506202502 59 338 2.6 6.1 0.00 0.00 0.00 33 1018.3
20260506201958 58 295 1.7 6.1 0.00 0.00 0.00 33 1018.2
20260506201456 59 18 3.5 6.1 0.00 0.00 0.00 34 1018.5
20260506200947 59 5 2.6 5.2 0.00 0.00 0.00 33 1018.5
20260506200443 59 333 3.5 5.2 0.00 0.00 0.00 33 1018.7
20260506195939 58 286 5.2 11.3 0.00 0.00 0.00 33 1018.7
20260506195437 59 40 2.6 2.6 0.00 0.00 0.00 32 1018.6
20260506194933 58 36 0.9 5.2 0.00 0.00 0.00 34 1018.6
20260506194431 58 288 7.8 9.6 0.00 0.00 0.00 31 1018.8
20260506193927 59 286 1.7 5.2 0.00 0.00 0.00 33 1018.7
20260506193424 59 19 3.5 4.3 0.00 0.00 0.00 31 1018.4
20260506192921 57 339 1.7 7.0 0.00 0.00 0.00 33 1018.7
20260506192417 58 315 3.5 6.1 0.00 0.00 0.00 33 1018.9
20260506191915 57 26 0.9 7.0 0.00 0.00 0.00 32 1019.0
20260506191411 57 274 3.5 5.2 0.00 0.00 0.00 35 1018.9
20260506190908 58 350 4.3 7.8 0.00 0.00 0.00 33 1019.0
20260506190404 57 35 1.7 5.2 0.00 0.00 0.00 35 1019.0
20260506185901 57 38 1.7 4.3 0.00 0.00 0.00 33 1018.9
20260506185359 57 47 0.9 7.8 0.00 0.00 0.00 36 1019.0
20260506184856 56 298 5.2 7.0 0.00 0.00 0.00 36 1019.1
20260506184352 55 92 0.9 1.7 0.00 0.00 0.00 37 1019.0
20260506183850 55 16 1.7 2.6 0.00 0.00 0.00 35 1019.2
20260506183345 56 285 4.3 7.0 0.00 0.00 0.00 36 1019.2
20260506182842 55 320 4.3 6.1 0.00 0.00 0.00 35 1019.4
20260506182339 56 40 0.0 4.3 0.00 0.00 0.00 39 1019.3
20260506181837 55 34 0.0 0.9 0.00 0.00 0.00 39 1019.2
20260506181335 55 289 3.5 4.3 0.00 0.00 0.00 37 1019.5
20260506180832 55 300 3.5 5.2 0.00 0.00 0.00 36 1019.3
20260506180327 55 62 0.9 2.6 0.00 0.00 0.00 38 1019.4
20260506175824 55 359 1.7 5.2 0.00 0.00 0.00 39 1019.5
20260506175321 55 22 2.6 7.0 0.00 0.00 0.00 36 1019.4
20260506174818 55 316 2.6 8.7 0.00 0.00 0.00 38 1019.3
20260506174315 55 285 1.7 4.3 0.00 0.00 0.00 37 1019.5
20260506173813 55 43 0.9 4.3 0.00 0.00 0.00 39 1019.5
20260506173309 55 313 4.3 6.1 0.00 0.00 0.00 38 1019.4
20260506172807 56 306 3.5 4.3 0.00 0.00 0.00 38 1019.4
20260506172306 55 43 0.9 1.7 0.00 0.00 0.00 39 1019.4
20260506171801 55 349 2.6 7.0 0.00 0.00 0.00 37 1019.5
20260506171258 55 28 1.7 5.2 0.00 0.00 0.00 37 1019.3
20260506170755 55 299 5.2 8.7 0.00 0.00 0.00 36 1019.3
20260506170251 55 47 0.9 2.6 0.00 0.00 0.00 37 1019.3